Location: Peterborough
(44.3091°N, 78.3197°W)
Time: 07:31:48
(UTC-04:00)

Vanguard 3 - Pass Details

Date: 23 March 2023
Orbit: 507 x 3246 km, 33.4° (Epoch: 04 June)

Event Time Altitude Azimuth Distance (km) Brightness Sun altitude
Rises 11:39:57 0° 276° (W) 6,269 11.4 41.4°
Reaches altitude 10° 11:46:58 10° 258° (WSW) 4,632 10.9 42.1°
Maximum altitude 11:52:47 15° 229° (SW) 3,640 10.7 42.7°
Drops below altitude 10° 11:57:25 10° 199° (SSW) 3,489 11.0 43.1°
Sets 12:01:27 0° 175° (S) 3,973 11.4 43.4°
